Probability
45 97 100 100 100 100 100 97 97 87 81 97 97 100 100 100 100 100 100 100 100 97 97 100 100 100 94 97 97 100 100 100 100 97 97 97 97 97 97 97 90 87 94
52 94 100 100 100 100 97 97 97 90 97 97 97 94 97 97 97 97 100 97 100 100 87 97 94 97 87 87 84 90 94 94 94 94 94 90 90 94 97 97 90 94 97
65 97 100 100 100 100 97 97 100 97 100 100 97 94 97 94 94 94 94 87 84 84 90 90 87 84 90 81 74 77 74 84 87 90 87 52 87 94 90 94 97 97 97
74 97 97 100 100 100 100 97 100 100 100 100 100 100 97 94 87 87 74 74 81 81 77 81 74 74 65 68 71 65 68 68 71 71 48 45 52 94 94 94 97 90 90
77 97 100 100 100 100 100 100 100 100 100 100 100 100 100 97 84 84 77 71 71 61 58 55 55 52 48 48 52 52 52 52 58 45 23 13 10 97 97 94 94 90 90
68 90 100 100 100 100 100 100 100 100 100 100 100 100 100 97 94 90 77 74 74 71 55 52 52 42 48 52 52 48 48 35 35 23 10 6 3 94 97 97 100 97 94
68 94 100 100 100 100 100 100 100 100 100 100 100 100 100 100 97 97 94 90 81 77 77 74 74 68 61 65 65 68 61 48 19 6 3 0 3 90 100 97 100 97 97
71 100 100 100 100 100 100 100 100 100 100 100 100 100 100 100 100 100 100 100 100 100 97 94 90 97 94 87 90 87 71 68 23 10 0 0 6 90 100 100 100 97 100
71 90 100 100 100 100 100 100 100 100 100 100 100 100 100 100 100 100 100 100 100 100 100 100 100 100 100 100 97 94 90 90 65 19 10 0 16 94 100 100 100 100 100
48 84 100 100 100 100 100 100 100 100 100 100 100 100 100 100 100 100 100 100 100 100 100 100 100 100 100 100 100 100 100 100 94 55 29 10 65 97 100 100 100 100 100
52 58 94 100 100 100 100 100 100 100 100 100 100 100 100 100 100 100 100 100 100 100 100 100 100 100 100 100 100 100 100 100 84 74 55 42 90 100 100 100 100 100 100
52 55 71 97 97 100 100 100 100 100 100 100 100 100 100 100 100 100 100 100 100 100 100 100 100 100 100 100 100 100 100 97 87 87 68 84 97 100 100 100 100 100 100
58 52 52 71 81 87 71 87 100 100 100 100 97 100 100 97 97 100 100 100 97 97 100 100 100 100 100 100 97 97 97 94 84 84 71 97 97 100 100 100 100 100 100
84 71 42 52 74 71 74 90 94 94 94 100 97 97 94 94 94 90 84 77 87 90 94 97 100 100 100 97 90 87 84 84 74 74 58 90 94 97 100 100 100 100 100
77 68 68 81 84 81 90 84 90 90 97 97 97 94 94 90 90 90 84 77 87 90 94 94 84 77 87 87 84 87 84 74 65 61 52 81 87 87 90 97 94 94 94
58 71 74 77 87 94 84 87 90 87 90 90 94 87 87 84 84 87 81 77 77 71 81 84 74 74 71 71 74 68 65 58 61 52 52 61 87 87 87 90 94 94 90
45 58 77 87 87 84 87 97 94 87 84 84 87 77 81 84 87 74 65 52 61 71 68 61 52 52 45 45 48 48 48 61 58 52 45 55 61 87 87 90 90 90 87
42 52 77 87 84 84 84 87 81 77 71 71 81 77 68 71 71 58 48 42 55 45 42 39 35 26 26 23 23 23 26 35 39 45 45 45 32 42 74 81 84 87 87
42 61 68 71 77 77 74 74 61 55 61 65 58 58 52 48 35 26 19 23 32 32 19 29 32 29 23 13 16 13 19 26 23 35 29 26 26 29 26 45 81 77 84
42 45 48 58 65 58 52 48 45 32 32 32 35 29 32 32 32 23 26 26 26 19 16 13 16 16 16 13 19 16 10 6 13 19 23 23 19 32 26 23 23 35 74
29 29 29 35 45 32 39 39 29 23 23 16 26 29 32 26 26 23 19 10 10 13 10 16 13 10 10 3 6 3 3 3 3 13 19 26 26 19 13 13 13 13 26
32 26 23 26 32 29 32 29 29 16 16 10 10 13 19 23 19 16 13 13 13 16 10 6 13 10 6 3 0 3 0 0 0 3 6 13 19 6 10 10 10 19 16
23 26 26 13 16 29 26 26 19 10 16 13 10 6 13 6 6 10 3 6 10 10 6 6 6 3 0 0 0 0 0 0 0 0 0 3 0 3 3 3 3 13 16
13 23 19 13 6 10 10 23 35 29 19 13 10 3 3 6 10 6 6 3 3 3 3 0 0 0 0 0 0 0 0 0 0 0 0 0 0 0 0 0 3 3 3
3 3 6 10 10 10 6 6 10 6 16 10 13 10 6 10 0 0 3 3 6 3 0 0 0 0 0 0 0 0 0 0 0 0 0 0 0 0 0 0 0 0 0
0 0 3 3 6 6 3 3 3 3 3 6 6 6 10 6 3 0 3 3 3 6 3 0 0 0 0 0 0 0 0 0 0 0 0 0 0 0 0 0 0 0 0
Height
5926 5925 5924 5923 5923 5922 5921 5921 5920 5919 5919 5918 5917 5916 5915 5913 5912 5911 5909 5908 5906 5905 5903 5902 5900 5899 5898 5897 5896 5895 5894 5893 5892 5891 5890 5889 5889 5889 5888 5888 5888 5888 5888
5927 5925 5925 5924 5923 5922 5922 5921 5920 5920 5919 5918 5917 5916 5915 5913 5912 5911 5909 5908 5906 5905 5903 5902 5901 5899 5898 5897 5896 5895 5894 5893 5893 5892 5891 5890 5889 5889 5889 5889 5888 5889 5889
5926 5925 5925 5924 5923 5922 5922 5921 5920 5919 5919 5918 5917 5915 5914 5913 5912 5910 5909 5907 5906 5905 5903 5902 5901 5899 5898 5897 5896 5895 5894 5893 5893 5892 5891 5890 5890 5889 5889 5889 5889 5889 5889
5926 5925 5924 5924 5923 5922 5921 5921 5920 5919 5918 5917 5916 5915 5913 5912 5911 5910 5908 5907 5906 5904 5903 5901 5900 5899 5898 5897 5896 5895 5894 5893 5892 5892 5891 5890 5890 5890 5889 5889 5889 5889 5889
5925 5924 5923 5923 5922 5921 5920 5920 5919 5918 5917 5916 5915 5913 5912 5911 5910 5909 5907 5906 5905 5903 5902 5901 5899 5898 5897 5896 5895 5894 5894 5893 5892 5891 5891 5890 5890 5889 5889 5889 5889 5889 5889
5924 5923 5922 5921 5921 5920 5919 5918 5917 5916 5915 5914 5913 5912 5911 5909 5908 5907 5906 5904 5903 5902 5901 5899 5898 5897 5896 5895 5894 5893 5893 5892 5891 5890 5890 5890 5889 5889 5889 5889 5889 5889 5889
5922 5921 5920 5920 5919 5918 5917 5916 5916 5915 5913 5912 5911 5910 5908 5907 5906 5904 5903 5902 5901 5900 5898 5897 5896 5895 5894 5893 5892 5892 5891 5891 5890 5889 5889 5888 5888 5888 5888 5888 5888 5888 5888
5920 5919 5918 5918 5917 5916 5915 5914 5913 5912 5911 5909 5908 5907 5905 5904 5902 5901 5900 5899 5898 5896 5895 5894 5893 5892 5891 5890 5890 5889 5889 5889 5889 5888 5887 5887 5887 5887 5887 5887 5887 5887 5887
5918 5917 5916 5915 5915 5914 5913 5911 5910 5909 5907 5906 5904 5903 5901 5900 5898 5897 5896 5894 5893 5892 5891 5891 5890 5889 5888 5887 5886 5886 5886 5886 5886 5886 5885 5885 5885 5885 5885 5885 5885 5885 5886
5915 5915 5914 5913 5912 5911 5909 5908 5906 5905 5903 5902 5900 5898 5897 5895 5894 5892 5891 5889 5888 5888 5887 5886 5885 5884 5883 5883 5882 5882 5881 5882 5882 5882 5882 5882 5882 5882 5882 5882 5883 5883 5884
5913 5912 5911 5910 5908 5907 5906 5904 5902 5901 5899 5897 5896 5894 5892 5890 5888 5887 5885 5884 5883 5882 5881 5880 5880 5879 5878 5877 5877 5877 5876 5877 5877 5877 5878 5878 5878 5878 5879 5879 5880 5880 5881
5910 5909 5907 5906 5905 5903 5901 5900 5898 5896 5895 5893 5891 5889 5887 5885 5883 5881 5879 5878 5877 5876 5875 5874 5874 5873 5872 5872 5871 5871 5870 5871 5871 5871 5872 5873 5873 5874 5875 5875 5876 5877 5878
5906 5905 5904 5902 5901 5899 5897 5895 5893 5891 5890 5888 5886 5884 5881 5879 5877 5875 5874 5872 5871 5870 5869 5868 5868 5867 5866 5866 5865 5865 5864 5864 5864 5865 5866 5866 5867 5868 5869 5870 5871 5872 5874
5901 5900 5898 5897 5895 5893 5891 5889 5888 5886 5884 5883 5880 5878 5876 5874 5871 5869 5868 5867 5865 5864 5863 5862 5861 5861 5860 5859 5859 5858 5857 5857 5857 5858 5858 5859 5860 5861 5862 5864 5865 5867 5868
5895 5894 5892 5890 5889 5887 5885 5883 5882 5880 5879 5877 5875 5872 5870 5868 5865 5863 5861 5861 5859 5858 5858 5857 5856 5855 5854 5853 5852 5852 5851 5851 5850 5850 5851 5851 5853 5854 5855 5856 5858 5860 5862
5888 5887 5886 5883 5882 5880 5878 5877 5876 5874 5872 5870 5868 5866 5864 5863 5860 5858 5856 5854 5853 5852 5851 5850 5850 5849 5848 5847 5847 5846 5845 5844 5844 5844 5844 5844 5845 5846 5847 5848 5850 5853 5855
5880 5879 5878 5875 5874 5873 5871 5870 5868 5866 5864 5863 5861 5858 5856 5855 5853 5851 5850 5848 5847 5846 5845 5844 5843 5843 5842 5842 5842 5841 5840 5839 5838 5838 5838 5838 5839 5840 5840 5842 5843 5845 5847
5871 5869 5866 5866 5865 5863 5862 5861 5860 5858 5856 5855 5853 5850 5849 5847 5846 5844 5843 5842 5841 5839 5838 5838 5837 5837 5837 5837 5836 5836 5835 5834 5833 5833 5833 5833 5833 5834 5834 5835 5837 5838 5840
5861 5857 5856 5854 5855 5854 5853 5852 5850 5850 5849 5847 5845 5843 5841 5840 5838 5837 5836 5835 5834 5834 5833 5832 5832 5832 5832 5831 5831 5830 5830 5829 5828 5828 5827 5828 5828 5828 5828 5829 5830 5831 5833
5850 5846 5845 5844 5844 5843 5843 5842 5842 5842 5842 5841 5839 5836 5834 5832 5831 5830 5828 5828 5828 5828 5827 5827 5826 5826 5826 5826 5826 5826 5825 5824 5823 5823 5823 5823 5822 5822 5823 5823 5824 5825 5826
5841 5837 5836 5837 5833 5833 5835 5835 5834 5835 5835 5834 5833 5830 5827 5826 5825 5823 5823 5822 5822 5822 5822 5821 5821 5821 5821 5821 5822 5821 5821 5820 5819 5819 5819 5818 5818 5817 5817 5818 5818 5819 5819
5835 5830 5830 5831 5830 5830 5829 5829 5828 5828 5828 5827 5825 5824 5821 5820 5818 5817 5816 5816 5816 5816 5816 5815 5815 5816 5816 5816 5817 5817 5816 5816 5815 5814 5814 5813 5813 5812 5812 5812 5812 5813 5813
5832 5827 5826 5826 5825 5824 5823 5822 5822 5821 5821 5820 5818 5816 5815 5813 5811 5810 5809 5809 5809 5809 5809 5809 5810 5810 5810 5810 5811 5811 5811 5811 5810 5810 5809 5808 5808 5807 5807 5807 5807 5807 5808
5829 5825 5821 5820 5818 5816 5815 5814 5814 5813 5812 5811 5810 5809 5807 5805 5804 5803 5802 5802 5802 5802 5802 5802 5802 5803 5803 5803 5804 5805 5805 5805 5805 5805 5804 5803 5803 5802 5802 5801 5801 5802 5802
5823 5820 5817 5814 5812 5810 5808 5807 5806 5805 5803 5802 5801 5800 5799 5797 5796 5795 5794 5794 5793 5793 5794 5794 5794 5795 5795 5796 5797 5797 5798 5799 5799 5800 5799 5797 5797 5797 5796 5796 5796 5796 5796
5816 5813 5810 5808 5805 5803 5801 5799 5798 5796 5794 5793 5791 5790 5789 5788 5787 5786 5785 5785 5785 5785 5785 5785 5786 5786 5787 5788 5789 5789 5790 5791 5792 5793 5793 5792 5791 5790 5790 5790 5790 5790 5790
Wind_Speed
5 6 7 7 7 8 8 9 9 10 10 11 11 12 12 13 13 13 13 13 13 13 12 12 12 12 11 11 11 11 11 11 11 11 10 9 9 8 6 6 6 6 7
3 4 5 5 6 6 7 7 8 8 9 9 10 10 11 12 12 12 12 13 12 12 12 12 11 11 11 10 10 10 10 9 9 9 9 8 8 8 7 6 5 5 6
3 4 4 5 5 6 6 7 7 8 8 8 9 9 10 11 11 11 12 12 12 12 11 11 11 11 10 10 10 9 9 8 8 8 8 8 7 7 6 6 5 4 5
4 5 5 6 6 6 7 7 7 8 8 8 8 8 9 10 11 11 11 12 11 11 11 11 11 11 10 9 9 9 8 8 7 7 7 7 6 5 5 5 4 3 3
6 6 6 6 7 7 7 7 7 8 8 8 8 9 9 10 11 11 12 12 12 11 11 11 11 11 10 10 9 8 8 7 7 6 5 5 5 4 3 3 3 2 2
8 8 8 8 8 8 8 8 8 8 8 8 9 9 10 11 12 13 13 13 12 12 12 12 12 11 11 10 10 8 7 7 7 6 5 4 4 3 2 1 1 1 1
9 9 9 9 9 9 8 8 8 9 9 10 10 11 12 13 14 14 14 14 14 13 13 13 13 13 12 12 11 10 9 7 7 6 6 5 4 3 2 2 1 1 1
10 10 10 9 9 9 9 10 10 11 11 12 13 14 15 15 16 16 16 16 16 15 15 15 15 15 15 14 14 13 12 10 9 8 8 7 6 5 5 4 3 2 2
11 11 11 10 10 10 11 12 13 13 14 15 16 16 17 18 18 18 19 19 19 18 18 18 18 18 17 17 17 16 16 14 12 11 11 11 9 8 7 6 5 4 4
11 11 12 12 12 13 14 15 15 16 16 17 18 19 20 20 21 21 21 22 22 21 21 21 21 20 20 20 20 20 19 18 17 15 15 14 13 12 11 9 8 7 6
13 13 13 14 15 15 16 16 17 17 18 19 20 21 22 23 23 24 24 24 24 24 23 24 23 23 23 23 23 23 23 22 21 20 19 18 17 16 14 13 12 11 9
16 16 16 17 17 17 18 18 19 19 20 20 21 22 23 24 25 26 26 26 26 26 25 25 25 24 25 25 25 25 25 25 24 24 23 22 21 20 18 16 15 14 13
19 19 19 20 20 20 20 20 20 21 21 22 22 23 24 25 26 27 27 27 27 27 27 26 26 26 26 26 26 26 26 27 27 26 26 25 25 24 23 21 19 18 17
22 22 22 22 22 22 22 22 22 22 23 23 24 24 25 27 28 28 28 27 27 27 27 26 26 26 26 25 25 24 25 25 26 27 27 28 28 28 27 25 24 23 22
25 24 23 24 23 23 24 23 23 24 24 24 24 25 26 26 27 28 29 27 26 26 25 25 25 24 24 23 24 24 23 23 24 26 25 27 28 29 29 27 26 26 25
27 26 26 26 26 25 24 25 25 25 25 25 25 26 26 26 28 28 28 27 26 24 23 23 23 22 22 21 21 21 21 21 22 23 22 24 25 28 30 29 28 29 29
30 29 28 27 28 28 27 27 26 26 26 26 26 27 27 27 28 28 27 26 25 24 23 22 21 21 20 19 19 18 18 18 17 18 20 21 22 23 25 27 28 27 29
34 33 29 29 29 29 29 28 27 27 28 27 27 28 28 28 28 27 26 25 24 22 21 21 20 20 19 18 18 17 16 15 16 16 17 18 19 21 23 24 26 27 27
38 36 33 31 31 31 30 29 27 28 29 29 29 29 29 30 29 27 26 25 23 22 21 20 19 19 18 17 16 16 16 15 15 15 15 16 17 18 20 22 23 25 26
38 38 33 29 29 29 28 26 28 28 28 29 31 32 31 30 29 27 25 24 23 21 21 20 19 19 18 16 15 15 15 15 15 14 14 15 16 17 18 20 21 22 24
39 35 30 29 26 25 25 27 28 29 29 30 31 32 31 30 29 28 27 24 23 22 21 20 20 19 18 17 16 15 15 15 15 15 15 15 15 16 17 18 20 21 23
36 32 28 28 28 27 28 29 30 29 31 31 30 31 30 30 29 28 26 24 23 23 22 21 21 20 20 18 17 17 17 16 16 16 16 15 15 16 16 17 19 21 22
33 32 30 28 27 27 29 30 30 31 32 31 31 31 30 30 28 27 26 24 24 24 23 23 22 22 21 20 19 18 18 18 18 17 17 16 16 16 17 17 18 19 21
31 30 29 28 28 29 30 32 32 33 34 33 33 33 32 31 29 28 27 27 26 26 26 25 25 24 24 23 22 21 20 19 19 19 18 18 17 17 17 18 18 19 20
29 30 30 29 29 30 32 33 34 36 36 35 35 35 33 32 32 31 29 29 29 29 29 28 28 28 27 26 25 25 23 22 21 20 20 20 19 18 18 18 18 19 20
31 31 32 31 33 34 35 36 37 38 38 38 38 38 37 36 35 34 33 33 33 33 33 31 31 31 30 29 29 28 27 26 25 23 22 22 21 21 20 19 19 19 20
Wind_Direction
55 47 47 45 41 38 37 34 29 24 19 15 12 10 10 10 10 11 11 12 13 15 18 20 21 23 25 28 31 34 38 43 48 51 53 56 60 66 75 86 96 103 107
32 25 25 25 22 20 19 17 13 10 8 6 4 3 1 1 1 2 3 4 4 5 7 9 11 13 16 19 22 26 30 35 41 47 51 53 57 60 67 76 87 99 105
345 346 349 351 354 356 358 357 355 354 354 355 355 354 352 351 351 352 352 353 354 354 355 357 359 0 3 8 12 15 19 23 30 36 42 46 51 55 60 67 78 93 103
303 313 321 328 333 336 338 339 339 340 341 342 342 342 340 340 340 341 341 341 342 343 344 344 345 347 348 352 358 3 5 7 12 21 30 38 45 49 55 60 69 83 103
287 296 303 310 316 320 323 325 326 326 328 329 329 329 327 327 327 327 328 329 329 329 330 331 331 331 333 335 339 344 350 351 351 356 10 22 34 41 46 54 62 72 103
282 287 293 300 304 308 310 312 314 315 316 317 317 317 316 315 315 315 316 316 316 317 316 316 317 316 316 318 320 324 328 333 333 331 335 347 3 19 25 35 49 58 109
280 283 288 293 296 298 299 300 303 305 304 305 307 307 307 306 306 306 306 306 306 305 305 305 305 304 303 303 304 305 305 308 309 308 308 310 312 318 324 328 303 282 238
281 283 286 288 289 291 292 293 296 298 298 298 299 300 300 300 299 299 299 299 298 297 297 296 296 295 294 293 292 292 292 290 289 286 285 285 285 283 282 282 280 271 255
282 284 284 284 286 289 290 292 294 294 294 294 294 294 294 294 294 293 293 293 292 291 290 290 290 289 288 286 284 284 283 282 280 277 276 275 274 273 269 265 261 260 256
283 284 284 285 286 289 291 292 293 292 292 292 292 292 291 291 291 290 290 289 288 288 287 287 287 286 284 281 279 278 277 276 275 272 269 270 269 267 264 258 255 254 252
282 284 284 286 287 289 291 292 293 292 292 293 293 292 291 290 290 290 289 288 287 287 287 286 286 284 282 279 277 275 273 272 271 269 265 263 263 262 260 256 253 251 249
282 284 285 287 289 290 291 291 292 292 294 295 295 294 292 292 291 290 289 288 287 287 285 284 284 283 281 279 276 274 272 270 268 266 264 259 258 257 255 253 252 251 249
283 285 287 288 288 289 290 290 291 294 294 295 295 294 294 293 292 291 290 289 288 287 285 285 283 282 281 279 278 277 273 268 268 266 262 259 256 254 252 250 250 250 248
282 283 285 285 286 286 288 290 292 294 294 294 294 295 293 293 292 291 290 289 287 285 284 283 283 282 281 280 279 278 276 273 269 267 263 258 256 253 250 249 247 247 248
280 279 280 282 282 283 286 288 291 291 291 292 292 292 291 291 289 291 289 287 285 284 282 281 281 280 280 281 281 279 277 274 273 270 265 259 256 254 251 248 246 246 247
277 277 274 276 279 281 283 286 288 288 289 290 291 290 290 289 288 287 289 287 286 285 284 281 279 278 278 279 280 279 277 277 273 270 266 261 258 253 250 248 248 246 247
279 278 273 274 278 279 281 282 285 287 288 290 291 292 293 292 290 289 289 288 286 284 282 280 278 277 276 277 277 279 280 279 275 270 265 259 256 256 252 247 250 249 249
281 278 273 273 277 278 278 280 285 288 290 292 293 295 295 293 291 291 289 287 285 283 281 278 277 277 276 275 275 277 280 279 276 273 269 264 261 258 257 254 253 252 253
283 278 281 271 273 275 276 278 283 287 289 291 294 294 296 295 291 290 288 285 283 282 280 278 277 276 276 275 275 276 278 279 279 276 272 269 266 263 260 256 255 254 253
285 280 280 274 273 270 273 278 280 286 291 295 295 296 295 293 290 290 287 285 282 281 279 276 275 275 274 274 275 277 277 278 278 278 277 276 273 267 262 259 258 256 252
290 283 276 280 272 273 277 280 283 289 292 295 294 296 294 292 290 288 286 282 279 278 276 273 272 272 271 269 271 274 276 276 277 276 277 277 276 273 268 262 259 258 256
296 293 281 288 289 289 288 286 289 290 294 294 294 295 294 291 290 287 282 278 276 275 272 270 269 268 268 267 268 271 273 275 277 278 277 277 277 276 275 269 266 261 257
297 299 292 290 292 290 290 291 291 292 293 292 292 292 293 293 290 286 281 278 276 275 272 269 267 266 266 266 267 269 270 273 277 277 278 278 277 277 277 276 271 265 260
300 298 298 292 290 288 289 290 289 289 290 289 290 290 290 289 287 283 281 280 278 275 273 270 267 265 265 265 267 268 269 269 272 275 277 277 277 276 277 277 276 269 265
299 297 295 294 292 289 287 287 287 287 286 286 286 285 284 283 282 280 277 277 277 275 273 270 269 266 264 264 267 269 269 269 268 269 272 275 276 276 277 277 277 274 270
296 296 296 294 292 290 287 285 285 285 284 285 284 283 282 280 278 277 275 274 273 273 272 270 269 267 265 264 265 267 268 268 268 267 268 270 275 277 277 277 277 275 272